Ephrata, WA

12:46 AM PDT on October 24, 2017 (GMT -0700)
Ephrata Municipal

Weather History for KEPH - October, 2013

Change the Weather History Date:

Thursday, October 10, 2013

  Actual Average Record
Temperature  
Mean Temperature 54 °F 53 °F  
Max Temperature 65 °F 66 °F 83 °F (1988)
Min Temperature 42 °F 41 °F 26 °F (2009)
Degree Days  
Heating Degree Days 11 12  
Month to date heating degree days 140 97  
Since 1 July heating degree days 248 224  
Cooling Degree Days 0 0  
Month to date cooling degree days 0 0  
Year to date cooling degree days 1084 769  
Growing Degree Days 4 (Base 50)    
Moisture  
Dew Point 33 °F    
Average Humidity 54    
Maximum Humidity 82    
Minimum Humidity 26    
Precipitation  
Precipitation 0.00 in 0.02 in 0.44 in (1956)
Month to date precipitation T 0.13  
Year to date precipitation 4.97 5.15  
Sea Level Pressure  
Sea Level Pressure 29.88 in    
Wind  
Wind Speed 5 mph (WNW)    
Max Wind Speed 15 mph    
Max Gust Speed 18 mph    
Visibility 10 miles    
Events      
T = Trace of Precipitation, MM = Missing Value Source: NWS Daily Summary

Daily Weather History Graph

Daily Weather History Graph

Search for Another Location

Airport or City:

Trip Planner

Search our weather history database for the weather conditions in past years. The results will help you decide how hot, cold, wet, or windy it might be!

Date:

Astronomy

Oct. 10, 2013 Rise Set
Actual Time 7:09 AM PDT 6:19 PM PDT
Civil Twilight 6:39 AM PDT 6:49 PM PDT
Nautical Twilight 6:03 AM PDT 7:25 PM PDT
Astronomical Twilight 5:28 AM PDT 8:00 PM PDT
Moon 1:21 PM PDT (10/10) 10:48 PM PDT (10/10)
Length of Visible Light 12h 10m
Length of Day
11h 09m
Waxing Crescent, 37% of the Moon is Illuminated
Oct 10
Waxing Crescent
Oct 11
First Quarter
Oct 18
Full
Oct 26
Last Quarter
Nov 3
New

Hourly Weather History & Observations

Time (PDT) Temp. Windchill Dew Point Humidity Pressure Visibility Wind Dir Wind Speed Gust Speed Precip Events Conditions
12:53 AM 46.9 °F - 37.9 °F 71% 29.86 in 10.0 mi SW 4.6 mph - N/A   Mostly Cloudy
1:53 AM 46.9 °F - 37.9 °F 71% 29.86 in 10.0 mi South 3.5 mph - N/A   Mostly Cloudy
2:53 AM 48.0 °F - 37.9 °F 68% 29.84 in 10.0 mi SW 3.5 mph - N/A   Overcast
3:53 AM 46.9 °F - 39.0 °F 74% 29.84 in 10.0 mi Calm Calm - N/A   Overcast
4:53 AM 46.9 °F - 37.9 °F 71% 29.84 in 10.0 mi Calm Calm - N/A   Overcast
5:53 AM 44.1 °F 41.5 °F 37.9 °F 79% 29.83 in 10.0 mi North 4.6 mph - N/A   Partly Cloudy
6:53 AM 45.0 °F 43.5 °F 37.9 °F 76% 29.85 in 10.0 mi North 3.5 mph - N/A   Overcast
7:53 AM 43.0 °F 40.3 °F 37.9 °F 82% 29.86 in 10.0 mi NNW 4.6 mph - N/A   Partly Cloudy
8:53 AM 46.9 °F - 39.9 °F 77% 29.87 in 10.0 mi NE 4.6 mph - N/A   Clear
9:53 AM 51.1 °F - 39.9 °F 66% 29.88 in 10.0 mi NE 4.6 mph - N/A   Clear
10:53 AM 55.9 °F - 37.9 °F 51% 29.88 in 10.0 mi Calm Calm - N/A   Clear
11:53 AM 61.0 °F - 30.0 °F 31% 29.86 in 10.0 mi West 6.9 mph - N/A   Clear
12:53 PM 61.0 °F - 30.0 °F 31% 29.86 in 10.0 mi Calm Calm - N/A   Mostly Cloudy
1:53 PM 62.1 °F - 28.9 °F 29% 29.86 in 10.0 mi South 3.5 mph - N/A   Clear
2:53 PM 62.1 °F - 28.0 °F 28% 29.86 in 10.0 mi ESE 4.6 mph - N/A   Mostly Cloudy
3:53 PM 64.0 °F - 28.9 °F 27% 29.86 in 10.0 mi SSW 6.9 mph - N/A   Scattered Clouds
4:53 PM 62.1 °F - 28.9 °F 29% 29.87 in 10.0 mi SSW 3.5 mph - N/A   Mostly Cloudy
5:53 PM 62.1 °F - 28.9 °F 29% 29.88 in 10.0 mi SSE 6.9 mph - N/A   Overcast
6:53 PM 57.0 °F - 30.0 °F 36% 29.90 in 10.0 mi Calm Calm - N/A   Partly Cloudy
7:53 PM 55.9 °F - 30.9 °F 39% 29.92 in 10.0 mi NW 12.7 mph - N/A   Clear
8:53 PM 54.0 °F - 28.9 °F 38% 29.94 in 10.0 mi NW 11.5 mph - N/A   Clear
9:53 PM 52.0 °F - 28.9 °F 41% 29.96 in 10.0 mi NNW 11.5 mph - N/A   Clear
10:53 PM 51.1 °F - 28.9 °F 43% 29.97 in 10.0 mi NNW 9.2 mph - N/A   Clear
11:53 PM 50.0 °F - 28.9 °F 44% 29.99 in 10.0 mi NNW 6.9 mph - N/A   Partly Cloudy